Weather in Kiris

Turkey     36°34′32″N   30°34′48″E
temp.,
°C
wind,
m/s
gust,
m/s
humid.,
%
clouds,
%
prec.,
mm/h
press.,
hPa
HPBL,
m
5 december, sun
sun500:00+13se4586100 2.4 1013527
03:00+13se3486100 5.5 1012404
06:00+13se5688100 4.6 1011608
09:00+13ese4682100 12.7 1012552
12:00+13sse348693 1.8 1013484
15:00+14se3476100 1.9 1013418
18:00+13se127982 0.3 1015271
21:00+13s128356 0.4 1017216
6 december, mon
mon600:00+13s358171 0.4 1018408
03:00+13se347783 1.1 1018360
06:00+13ese128397 0.6 1018184
09:00+13ese239198 2.1 1019243
12:00+14e118786 1.0 1020308
15:00+15sse337863 1.7 1018616
18:00+13sw238860 0.7 1018159
21:00+13sw228166 0.9 1019123
7 december, tue
tue700:00+13s238752 0.8 1018169
03:00+12sw228729 2.0 1016116
06:00+13wsw238338 1.2 1015151
09:00+13s4685100 3.0 1014435
12:00+13s699296 5.6 1012676
15:00+13sse91393100 17.6 10071057
18:00+12ssw6108995 9.8 1007601
21:00+12ssw61188100 17.3 10061121
8 december, wed
wed800:00+10wsw478810 4.9 1006352
03:00+9w3585100 5.1 1006247
06:00+9wnw2274100 0.0 100790
09:00+10wnw227625 0.0 100893
12:00+12e216873 0.1 1008863
15:00+12ese117257 0.4 1008600
18:00+10n238654 0.8 1011202
21:00+10n34875 1.0 1014177
9 december, thu
thu900:00+9nnw23823 0.0 1016109
03:00+9nw227826 0.1 1017100
06:00+9nw227722 0.0 101893
09:00+10nnw227740 0.0 1020105
12:00+13e216832 0.0 1021728
15:00+13ese216829 0.0 1020683
18:00+11w00845 0.0 102289
21:00+10nnw228290 0.0 102386